EW1822 Weather Reports


time (UTC)temp
C
wind
direction
speed
KPH
gust
KPH
rain 1hr
cm
rain 24hr
cm
rain mn
cm
humidity
%
barometer
mb
20190424154603 13 339 12.9 24.1 0.00 0.03 0.00 83 1014.6
20190424154102 13 340 14.5 24.1 0.00 0.03 0.00 83 1014.6
20190424153602 13 335 14.5 25.7 0.00 0.03 0.00 83 1014.5
20190424153102 13 330 14.5 27.4 0.00 0.03 0.00 83 1014.5
20190424152602 13 331 14.5 29.0 0.00 0.03 0.00 83 1014.4
20190424152103 13 332 14.5 32.2 0.00 0.03 0.00 83 1014.4
20190424151603 13 333 11.3 32.2 0.00 0.03 0.00 83 1014.4
20190424151102 13 334 8.0 24.1 0.00 0.03 0.00 83 1014.5
20190424150603 13 333 9.7 24.1 0.00 0.03 0.00 83 1014.6
20190424150108 13 334 11.3 27.4 0.00 0.03 0.00 83 1014.8
20190424145602 13 333 12.9 30.6 0.00 0.03 0.00 83 1014.8
20190424145103 13 333 12.9 30.6 0.00 0.03 0.00 83 1014.8
20190424144602 13 338 11.3 22.5 0.00 0.03 0.00 83 1014.9
20190424144103 13 343 11.3 22.5 0.00 0.03 0.00 83 1014.8
20190424143602 13 338 11.3 20.9 0.00 0.03 0.00 84 1015.0
20190424143102 13 334 9.7 22.5 0.00 0.03 0.00 84 1015.1
20190424142603 12 338 9.7 22.5 0.00 0.03 0.00 85 1015.1
20190424142102 12 336 11.3 20.9 0.00 0.03 0.00 85 1015.1
20190424141605 12 346 11.3 29.0 0.00 0.03 0.00 86 1015.1
20190424141104 12 348 11.3 29.0 0.00 0.03 0.00 86 1015.1
20190424140601 12 347 12.9 22.5 0.00 0.03 0.00 86 1015.1
20190424140119 12 349 11.3 19.3 0.00 0.03 0.00 87 1015.1
20190424135601 12 344 9.7 19.3 0.00 0.03 0.03 87 1015.3
20190424135101 12 346 9.7 22.5 0.00 0.03 0.03 86 1015.4
20190424134601 12 348 11.3 22.5 0.00 0.03 0.03 86 1015.3
20190424134101 12 345 11.3 22.5 0.00 0.03 0.03 86 1015.4
20190424133602 12 341 12.9 22.5 0.00 0.03 0.03 86 1015.3
20190424133102 12 343 11.3 20.9 0.00 0.03 0.03 87 1015.5
20190424132601 12 349 8.0 20.9 0.00 0.03 0.03 86 1015.4
20190424132101 12 350 8.0 22.5 0.00 0.03 0.03 86 1015.3
20190424131601 12 350 9.7 24.1 0.00 0.03 0.03 86 1015.5
20190424131101 12 349 12.9 24.1 0.00 0.03 0.03 86 1015.6
20190424130601 12 345 11.3 22.5 0.00 0.03 0.03 86 1015.8
20190424130115 12 345 11.3 24.1 0.00 0.03 0.03 85 1015.7
20190424125602 12 346 12.9 24.1 0.00 0.03 0.03 85 1015.7
20190424125102 12 340 11.3 22.5 0.00 0.03 0.03 85 1015.6
20190424124606 12 338 11.3 24.1 0.00 0.03 0.03 85 1015.9
20190424124104 12 339 11.3 29.0 0.00 0.03 0.03 85 1015.8
20190424123601 12 344 11.3 29.0 0.00 0.03 0.03 85 1015.9
20190424123101 11 347 11.3 25.7 0.00 0.03 0.03 85 1016.0
20190424122559 11 346 9.7 19.3 0.00 0.03 0.03 84 1016.0
20190424122059 11 347 9.7 20.9 0.00 0.03 0.03 84 1016.2
20190424121558 11 347 9.7 20.9 0.00 0.03 0.03 84 1016.3
20190424121058 11 349 8.0 20.9 0.00 0.03 0.03 83 1016.5
20190424120558 11 347 8.0 20.9 0.00 0.03 0.03 83 1016.4
20190424120100 11 345 6.4 14.5 0.00 0.03 0.03 83 1016.4
20190424115558 11 345 8.0 17.7 0.00 0.03 0.03 82 1016.5
20190424115057 11 349 8.0 19.3 0.00 0.03 0.03 82 1016.6
20190424114557 11 349 8.0 19.3 0.00 0.03 0.03 82 1016.6
20190424114058 11 346 8.0 19.3 0.00 0.03 0.03 81 1016.7
20190424113557 11 344 8.0 14.5 0.00 0.03 0.03 81 1016.6
20190424113058 11 345 8.0 19.3 0.00 0.03 0.03 80 1016.5
20190424112557 11 342 9.7 20.9 0.00 0.03 0.03 80 1016.4
20190424112057 11 334 9.7 20.9 0.00 0.03 0.03 80 1016.7
20190424111557 12 336 11.3 22.5 0.00 0.03 0.03 79 1016.6
20190424111058 12 339 11.3 24.1 0.00 0.03 0.03 79 1016.7
20190424110557 12 343 11.3 24.1 0.00 0.03 0.03 79 1016.5
20190424110059 12 339 11.3 20.9 0.00 0.03 0.03 79 1016.6
20190424105558 12 335 11.3 20.9 0.00 0.03 0.03 79 1016.6
20190424105058 12 337 11.3 20.9 0.00 0.03 0.03 78 1016.7
20190424104557 12 337 11.3 20.9 0.00 0.03 0.03 78 1016.6
20190424104058 12 341 9.7 20.9 0.00 0.03 0.03 78 1016.6
20190424103557 12 343 9.7 17.7 0.00 0.03 0.03 78 1016.6
20190424103057 12 339 11.3 22.5 0.00 0.03 0.03 78 1016.6
20190424102557 12 336 11.3 22.5 0.00 0.03 0.03 77 1016.7
20190424102057 12 334 11.3 19.3 0.00 0.03 0.03 78 1016.8
20190424101556 12 333 14.5 27.4 0.00 0.03 0.03 77 1016.7
20190424101057 12 333 17.7 30.6 0.00 0.03 0.03 77 1016.9
20190424100556 12 332 17.7 30.6 0.00 0.03 0.03 77 1016.9
20190424100058 12 331 16.1 30.6 0.00 0.03 0.03 77 1017.0
20190424095554 12 331 16.1 30.6 0.00 0.03 0.03 78 1017.1
20190424095056 12 330 16.1 25.7 0.00 0.03 0.03 79 1016.9
20190424094554 12 330 16.1 27.4 0.00 0.03 0.03 79 1016.9
20190424094053 12 331 14.5 27.4 0.00 0.03 0.03 80 1017.0
20190424093553 12 332 14.5 25.7 0.00 0.03 0.03 80 1017.0
20190424093052 12 332 14.5 27.4 0.00 0.03 0.03 81 1017.0
20190424092552 12 330 14.5 27.4 0.00 0.03 0.03 82 1017.0
20190424092053 12 331 16.1 29.0 0.00 0.03 0.03 83 1017.0
20190424091555 12 330 14.5 29.0 0.00 0.03 0.03 83 1016.9
20190424091051 12 330 14.5 27.4 0.00 0.03 0.03 84 1016.9
20190424090551 12 331 16.1 27.4 0.00 0.03 0.03 85 1016.9
20190424090052 13 331 17.7 27.4 0.00 0.03 0.03 86 1016.8
20190424085550 13 330 16.1 27.4 0.00 0.03 0.03 87 1016.8
20190424085049 13 330 14.5 27.4 0.00 0.03 0.03 89 1016.8
20190424084548 13 331 14.5 29.0 0.00 0.03 0.03 89 1016.7
20190424084047 13 331 16.1 29.0 0.00 0.03 0.03 90 1016.6
20190424083545 13 331 16.1 32.2 0.00 0.03 0.03 90 1016.6
20190424083049 13 328 17.7 32.2 0.00 0.03 0.03 91 1016.5
20190424082544 13 328 16.1 29.0 0.00 0.03 0.03 91 1016.6
20190424082043 13 329 16.1 30.6 0.00 0.03 0.03 91 1016.5
20190424081544 13 332 16.1 30.6 0.00 0.03 0.03 91 1016.5
20190424081044 13 331 16.1 32.2 0.00 0.03 0.03 91 1016.5
20190424080543 13 330 14.5 32.2 0.00 0.03 0.03 91 1016.5
20190424080044 13 334 12.9 25.7 0.00 0.03 0.03 91 1016.5
20190424075542 13 336 11.3 25.7 0.00 0.03 0.03 91 1016.5
20190424075041 13 332 11.3 22.5 0.00 0.03 0.03 91 1016.5
20190424074541 13 333 14.5 27.4 0.00 0.03 0.03 91 1016.6
20190424074040 13 334 14.5 27.4 0.00 0.03 0.03 90 1016.7
20190424073540 13 334 14.5 25.7 0.00 0.03 0.03 90 1016.7
20190424073040 13 337 14.5 25.7 0.00 0.03 0.03 90 1016.8
20190424072539 13 338 14.5 27.4 0.00 0.03 0.03 90 1016.7
20190424072039 13 336 12.9 27.4 0.00 0.03 0.03 89 1016.8
20190424071538 13 335 14.5 22.5 0.00 0.03 0.03 89 1016.8
20190424071038 13 337 16.1 27.4 0.00 0.03 0.03 88 1016.8
20190424070537 13 336 16.1 27.4 0.00 0.03 0.03 88 1016.9
20190424070049 13 335 14.5 27.4 0.00 0.03 0.03 88 1016.9
20190424065534 13 336 12.9 25.7 0.00 0.03 0.03 88 1016.9
20190424065035 13 336 12.9 25.7 0.00 0.03 0.03 87 1016.9
20190424064533 13 338 11.3 25.7 0.00 0.03 0.03 87 1016.8
20190424064032 13 336 12.9 27.4 0.00 0.03 0.03 87 1017.0
20190424063533 13 335 14.5 27.4 0.00 0.03 0.03 87 1017.0
20190424063031 13 335 14.5 22.5 0.00 0.03 0.03 86 1017.1
20190424062531 14 342 14.5 25.7 0.00 0.03 0.03 85 1017.1
20190424062030 14 348 11.3 25.7 0.00 0.03 0.03 85 1017.2
20190424061530 14 340 11.3 20.9 0.00 0.03 0.03 84 1017.2
20190424061112 15 345 12.9 25.7 0.00 0.03 0.03 83 1017.2
20190424060530 15 348 11.3 25.7 0.00 0.03 0.03 83 1017.3
20190424060031 15 336 11.3 24.1 0.00 0.03 0.03 84 1017.1
20190424055527 15 334 12.9 24.1 0.00 0.03 0.03 84 1017.3
20190424055027 15 340 12.9 24.1 0.00 0.03 0.03 83 1017.3
20190424054527 15 352 12.9 30.6 0.00 0.03 0.03 82 1017.3
20190424054026 15 352 12.9 30.6 0.00 0.03 0.03 82 1017.2
20190424053526 15 348 12.9 29.0 0.00 0.03 0.03 81 1017.3
20190424053024 15 352 14.5 29.0 0.00 0.03 0.03 81 1017.3
20190424052523 15 350 12.9 22.5 0.00 0.03 0.03 81 1017.4
20190424052023 15 351 11.3 22.5 0.00 0.03 0.03 81 1017.5
20190424051523 14 349 11.3 25.7 0.00 0.03 0.03 81 1017.7
20190424051022 14 351 12.9 25.7 0.00 0.03 0.03 81 1017.8
20190424050522 14 357 9.7 20.9 0.00 0.03 0.03 80 1018.0
20190424050025 14 350 9.7 19.3 0.00 0.03 0.03 80 1018.1
20190424045522 14 345 11.3 22.5 0.00 0.03 0.03 80 1018.2
20190424045021 14 340 12.9 22.5 0.00 0.03 0.03 80 1018.2
20190424044522 14 333 11.3 22.5 0.00 0.03 0.03 79 1018.2
20190424044023 15 337 11.3 24.1 0.00 0.03 0.03 79 1018.2
20190424043521 15 342 11.3 27.4 0.00 0.03 0.03 79 1018.2
20190424043021 15 340 11.3 27.4 0.00 0.03 0.03 79 1018.1
20190424042522 15 336 12.9 27.4 0.00 0.03 0.03 78 1018.1
20190424042022 15 342 11.3 27.4 0.00 0.03 0.03 77 1018.2
20190424041523 15 354 8.0 25.7 0.00 0.03 0.03 79 1018.1
20190424041021 15 340 9.7 19.3 0.00 0.03 0.03 77 1018.4
20190424040521 15 332 11.3 24.1 0.00 0.03 0.03 77 1018.6
20190424040024 15 330 12.9 25.7 0.00 0.03 0.03 77 1018.8
20190424035521 15 327 12.9 25.7 0.00 0.03 0.03 76 1018.9
20190424035021 14 326 12.9 29.0 0.00 0.03 0.03 77 1019.2
20190424034521 14 325 14.5 29.0 0.00 0.03 0.03 77 1019.2
20190424034020 14 325 16.1 29.0 0.00 0.03 0.03 76 1019.2
20190424033521 15 326 16.1 29.0 0.00 0.03 0.03 76 1019.3
20190424033020 15 327 16.1 29.0 0.00 0.03 0.03 76 1019.4
20190424032521 15 326 17.7 29.0 0.00 0.03 0.03 75 1019.3
20190424032020 14 325 17.7 30.6 0.00 0.03 0.03 75 1019.3
20190424031520 15 324 19.3 30.6 0.00 0.03 0.03 75 1019.3
20190424031018 14 326 16.1 30.6 0.00 0.03 0.03 76 1019.0
20190424030518 14 329 11.3 19.3 0.00 0.03 0.03 79 1018.9
20190424030023 14 324 11.3 17.7 0.00 0.03 0.03 80 1019.0
20190424022016 14 340 14.5 24.1 0.00 0.03 0.03 83 1019.7
20190424021516 14 334 12.9 24.1 0.00 0.03 0.03 84 1019.9
20190424021015 14 330 11.3 24.1 0.00 0.03 0.03 84 1020.0
20190424020515 13 334 12.9 24.1 0.00 0.03 0.03 85 1020.2
20190424020016 13 333 11.3 24.1 0.00 0.03 0.03 85 1020.3
20190424015514 13 331 12.9 29.0 0.00 0.03 0.03 86 1020.4
20190424015014 13 332 12.9 29.0 0.00 0.03 0.03 86 1020.6
20190424014513 13 331 8.0 19.3 0.00 0.03 0.03 87 1020.7
20190424014011 13 329 9.7 19.3 0.00 0.03 0.03 87 1020.8
20190424013511 13 328 11.3 19.3 0.00 0.03 0.03 87 1020.9
20190424013013 13 336 12.9 25.7 0.00 0.03 0.03 87 1021.0
20190424012510 13 342 9.7 25.7 0.00 0.03 0.03 87 1021.1
20190424012010 13 336 9.7 25.7 0.00 0.03 0.03 88 1021.1
20190424011510 12 328 11.3 25.7 0.00 0.03 0.03 88 1021.4
20190424011009 12 328 12.9 22.5 0.00 0.03 0.03 88 1021.4
20190424010509 12 330 12.9 24.1 0.00 0.03 0.03 88 1021.4
20190424010011 12 328 12.9 24.1 0.03 0.03 0.03 88 1021.5
20190424005510 12 326 12.9 24.1 0.03 0.03 0.03 88 1021.6
20190424005008 12 324 11.3 20.9 0.03 0.03 0.03 89 1021.5
20190424004510 12 327 11.3 20.9 0.03 0.03 0.03 90 1021.5
20190424004009 12 332 9.7 19.3 0.03 0.03 0.03 91 1021.5
20190424003509 12 332 8.0 14.5 0.03 0.03 0.03 91 1021.6
20190424003009 12 326 9.7 19.3 0.03 0.03 0.03 92 1021.7
20190424002509 12 329 8.0 19.3 0.03 0.03 0.03 93 1021.7
20190424002009 12 335 6.4 14.5 0.03 0.03 0.03 94 1021.8
20190424001510 12 326 8.0 19.3 0.03 0.03 0.03 94 1021.8
20190424001009 12 321 11.3 19.3 0.03 0.03 0.03 95 1021.8
20190424000509 11 320 9.7 17.7 0.03 0.03 0.03 95 1021.9
20190424000012 11 317 8.0 14.5 0.00 0.00 0.00 95 1022.0
20190423235509 11 312 4.8 16.1 0.00 0.00 0.00 96 1022.0
20190423235008 11 309 1.6 16.1 0.00 0.00 0.00 96 1022.0
20190423234509 11 0 0.0 6.4 0.00 0.00 0.00 96 1022.1
20190423234009 11 0 0.0 4.8 0.00 0.00 0.00 96 1022.1
20190423233509 11 0 0.0 3.2 0.00 0.00 0.00 96 1022.0
20190423233009 11 0 0.0 3.2 0.00 0.00 0.00 96 1022.1
20190423232510 10 0 0.0 1.6 0.00 0.00 0.00 96 1022.2
20190423232009 10 0 0.0 1.6 0.00 0.00 0.00 96 1022.2
20190423231509 10 0 0.0 0.0 0.00 0.00 0.00 96 1022.2
20190423231009 10 0 0.0 0.0 0.00 0.00 0.00 96 1022.3
20190423230509 10 0 0.0 0.0 0.00 0.00 0.00 96 1022.3
20190423230011 10 0 0.0 0.0 0.00 0.00 0.00 96 1022.4
20190423225508 10 0 0.0 0.0 0.00 0.00 0.00 96 1022.4
20190423225008 10 0 0.0 0.0 0.00 0.00 0.00 96 1022.4
20190423224508 10 0 0.0 0.0 0.00 0.00 0.00 96 1022.5
20190423224008 10 0 0.0 0.0 0.00 0.00 0.00 96 1022.5
20190423223507 10 0 0.0 0.0 0.00 0.00 0.00 96 1022.6
20190423223007 10 0 0.0 0.0 0.00 0.00 0.00 96 1022.7
20190423222610 10 0 0.0 0.0 0.00 0.00 0.00 96 1022.7
20190423222109 9 0 0.0 0.0 0.00 0.00 0.00 96 1022.7
20190423221608 9 0 0.0 0.0 0.00 0.00 0.00 96 1022.8
20190423221107 9 0 0.0 0.0 0.00 0.00 0.00 96 1022.8
20190423220606 9 0 0.0 0.0 0.00 0.00 0.00 96 1022.9
20190423220108 9 0 0.0 0.0 0.00 0.00 0.00 96 1022.9
20190423215606 9 0 0.0 0.0 0.00 0.00 0.00 96 1023.1
20190423215105 9 0 0.0 0.0 0.00 0.00 0.00 96 1023.1
20190423214604 9 0 0.0 0.0 0.00 0.00 0.00 96 1023.0
20190423214104 8 0 0.0 0.0 0.00 0.00 0.00 96 1023.0
20190423213603 8 0 0.0 0.0 0.00 0.00 0.00 96 1022.9
20190423213102 8 0 0.0 0.0 0.00 0.00 0.00 95 1023.1
20190423212602 8 0 0.0 0.0 0.00 0.00 0.00 96 1023.1
20190423212101 8 0 0.0 0.0 0.00 0.00 0.00 96 1023.1
20190423211600 8 0 0.0 0.0 0.00 0.00 0.00 96 1023.1
20190423211100 8 0 0.0 0.0 0.00 0.00 0.00 96 1023.1
20190423210559 8 0 0.0 0.0 0.00 0.00 0.00 96 1023.1
20190423210101 8 0 0.0 0.0 0.00 0.00 0.00 95 1023.0
20190423205557 8 0 0.0 0.0 0.00 0.00 0.00 96 1023.1
20190423205057 8 0 0.0 0.0 0.00 0.00 0.00 96 1023.1
20190423204557 8 0 0.0 0.0 0.00 0.00 0.00 96 1023.0
20190423204057 7 0 0.0 0.0 0.00 0.00 0.00 95 1023.0
20190423203556 7 0 0.0 0.0 0.00 0.00 0.00 95 1023.0
20190423203055 7 0 0.0 0.0 0.00 0.00 0.00 95 1023.1
20190423202556 7 0 0.0 0.0 0.00 0.00 0.00 95 1023.0
20190423202055 7 0 0.0 0.0 0.00 0.00 0.00 95 1023.0
20190423201556 7 0 0.0 0.0 0.00 0.00 0.00 95 1023.0
20190423201057 7 0 0.0 0.0 0.00 0.00 0.00 95 1023.0
20190423200554 7 0 0.0 0.0 0.00 0.00 0.00 95 1023.1
20190423200057 7 0 0.0 0.0 0.00 0.00 0.00 95 1023.0
20190423195553 7 0 0.0 0.0 0.00 0.00 0.00 95 1023.1
20190423195054 7 0 0.0 0.0 0.00 0.00 0.00 95 1023.1
20190423194554 7 0 0.0 0.0 0.00 0.00 0.00 95 1023.2
20190423194053 7 0 0.0 0.0 0.00 0.00 0.00 95 1023.2
20190423193553 7 0 0.0 0.0 0.00 0.00 0.00 95 1023.3
20190423193054 7 0 0.0 0.0 0.00 0.00 0.00 95 1023.3
20190423192553 7 0 0.0 0.0 0.00 0.00 0.00 95 1023.4
20190423192054 7 0 0.0 0.0 0.00 0.00 0.00 95 1023.3
20190423191553 7 0 0.0 0.0 0.00 0.00 0.00 94 1023.4
20190423191054 7 0 0.0 0.0 0.00 0.00 0.00 94 1023.4
20190423190553 7 0 0.0 0.0 0.00 0.00 0.00 94 1023.4
20190423190133 7 0 0.0 0.0 0.00 0.00 0.00 94 1023.4
20190423185555 7 0 0.0 0.0 0.00 0.00 0.00 94 1023.4
20190423185052 7 0 0.0 0.0 0.00 0.00 0.00 94 1023.4
20190423184552 8 0 0.0 0.0 0.00 0.00 0.00 94 1023.4
20190423184052 8 0 0.0 0.0 0.00 0.00 0.00 94 1023.5
20190423183552 8 0 0.0 0.0 0.00 0.00 0.00 94 1023.4
20190423183051 8 0 0.0 0.0 0.00 0.00 0.00 94 1023.4
20190423182552 7 0 0.0 0.0 0.00 0.00 0.00 94 1023.4
20190423182052 8 0 0.0 0.0 0.00 0.00 0.00 94 1023.4
20190423181552 7 0 0.0 0.0 0.00 0.00 0.00 94 1023.4
20190423181052 7 0 0.0 0.0 0.00 0.00 0.00 94 1023.4
20190423180551 7 0 0.0 0.0 0.00 0.00 0.00 94 1023.4
20190423180054 7 0 0.0 0.0 0.00 0.00 0.00 94 1023.4
20190423175551 7 0 0.0 0.0 0.00 0.00 0.00 94 1023.5
20190423175052 8 0 0.0 0.0 0.00 0.00 0.00 94 1023.5
20190423174550 8 0 0.0 0.0 0.00 0.00 0.00 94 1023.5
20190423174051 8 0 0.0 0.0 0.00 0.00 0.00 94 1023.6
20190423173551 8 0 0.0 0.0 0.00 0.00 0.00 94 1023.5
20190423173050 8 0 0.0 0.0 0.00 0.00 0.00 94 1023.5
20190423172551 8 0 0.0 0.0 0.00 0.00 0.00 94 1023.6
20190423172051 8 0 0.0 0.0 0.00 0.00 0.00 93 1023.7
20190423171551 8 0 0.0 0.0 0.00 0.00 0.00 94 1023.8
20190423171052 8 0 0.0 0.0 0.00 0.00 0.00 94 1023.8
20190423170551 8 0 0.0 0.0 0.00 0.00 0.00 93 1023.9
20190423170207 8 0 0.0 0.0 0.00 0.00 0.00 93 1023.9
20190423165550 8 0 0.0 0.0 0.00 0.00 0.00 93 1024.0
20190423165056 8 0 0.0 0.0 0.00 0.00 0.00 93 1024.0
20190423164551 8 0 0.0 0.0 0.00 0.00 0.00 93 1024.0
20190423164049 8 0 0.0 0.0 0.00 0.00 0.00 93 1024.1
20190423163551 8 0 0.0 0.0 0.00 0.00 0.00 93 1024.2
20190423163100 9 0 0.0 0.0 0.00 0.00 0.00 93 1024.2
20190423162549 9 0 0.0 0.0 0.00 0.00 0.00 93 1024.3
20190423162047 9 0 0.0 0.0 0.00 0.00 0.00 93 1024.3
20190423161550 9 0 0.0 0.0 0.00 0.00 0.00 93 1024.4
20190423161047 9 0 0.0 0.0 0.00 0.00 0.00 93 1024.5
20190423160547 9 0 0.0 0.0 0.00 0.00 0.00 93 1024.6
20190423160049 9 0 0.0 0.0 0.00 0.00 0.00 93 1024.6
20190423155547 9 0 0.0 0.0 0.00 0.00 0.00 93 1024.6
20190423155047 9 0 0.0 0.0 0.00 0.00 0.00 93 1024.7